User: anonymous
Location: Caltech
(34.1382°N, 118.1253°W)
Time: 18:48:30
(UTC-07:00)
Language:

Iridium 62 - Orbit

View from above orbital plane
View from above orbital plane
View from above satellite
View from above satellite

Ground track
Ground track

The orbit data is extracted from the following two-line orbital elements,

1 25285U 98021A   14108.14931462  .00000414  00000-0  14074-3 0  7420
2 25285 086.3980 347.1384 0002104 104.7873 255.3556 14.34213895839321
Epoch (UTC): 18 April 2014 03:35:00
Eccentricity: 0.0002104
inclination: 86.3980°
perigee height: 776 km
apogee height: 779 km
right ascension of ascending node: 347.1384°
argument of perigee: 104.7873°
revolutions per day: 14.34213895
mean anomaly at epoch: 255.3556°
orbit number at epoch: 83932

The dashed part of the orbit path shows where the satellite is in the earth's shadow,  

DLR